Retour au catalogue

STARLINK-31502

ActifCommunicationsVLEO
NORAD 59301·PAYLOAD·🇺🇸 United States

Lancé Mar 24, 2024 depuis Cape Canaveral Space Force Station

Loading…

Prochains Passages (prochaines 24 heures)

TLE

FraisSource: CelesTrak SupGP

Époque: Sep 14, 2026, 22:07 UTC

1 59301C 24056F   26257.92201389  .00025704  00000+0  93124-3 0  2577
2 59301  42.9991 234.7828 0001240 267.7144 270.8310 15.27558003    14

Suivez STARLINK-31502 en temps réel avec AllMySat

Download on the App Store